Location: B�hl
(48.6968°N, 8.1352°E)
Time: 02:48:56
(UTC+00:00)

CENTAUR R/B - Pass Details

Date: 08 March 2021
Orbit: 742 x 1446 km, 63.4° (Epoch: 31 March)

Event Time Altitude Azimuth Distance (km) Brightness Sun altitude
Rises 20:16:04 0° 228° (SW) 3,428 5.6 -28.6°
Reaches altitude 10° 20:18:23 10° 230° (SW) 2,571 4.9 -28.9°
Maximum altitude 20:24:23 73° 315° (NW) 1,065 2.7 -29.7°
Drops below altitude 10° 20:31:40 10° 40° (NE) 3,083 5.0 -30.8°
Sets 20:34:40 0° 43° (NE) 4,156 5.7 -31.2°
